Weather History for Fosston, MN

Change the Weather History Date:

Thursday, October 17, 2013

  Actual Average Record
Temperature  
Mean Temperature 36 °F -  
Max Temperature 44 °F 52 °F 79 °F (1956)
Min Temperature 28 °F 31 °F 13 °F (1972)
Degree Days  
Heating Degree Days 29    
Moisture  
Dew Point 35 °F    
Average Humidity 88    
Maximum Humidity 100    
Minimum Humidity 76    
Precipitation  
Precipitation 0.00 in - - ()
Sea Level Pressure  
Sea Level Pressure 29.87 in    
Wind  
Wind Speed 5 mph (NNW)    
Max Wind Speed 16 mph    
Max Gust Speed 23 mph    
Visibility 9 miles    
Events Fog , Rain    
Averages and records for this station are not official NWS values.
T = Trace of Precipitation, MM = Missing Value Source: NWS Daily Summary

Daily Weather History Graph

Daily Weather History Graph

Search for Another Location

Airport:

Trip Planner

Search our weather history database for the weather conditions in past years. The results will help you decide how hot, cold, wet, or windy it might be!

Date:

Astronomy

Oct. 17, 2013 Rise Set
Actual Time 7:45 AM CDT 6:30 PM CDT
Civil Twilight 7:13 AM CDT 7:01 PM CDT
Nautical Twilight 6:38 AM CDT 7:37 PM CDT
Astronomical Twilight 6:02 AM CDT 8:13 PM CDT
Moon 5:47 PM CDT (10/17) 6:14 AM CDT (10/17)
Length of Visible Light 11h 47m
Length of Day
10h 45m
Waxing Gibbous, 98% of the Moon is Illuminated
Oct 17
Waxing Gibbous
Oct 18
Full
Oct 26
Last Quarter
Nov 3
New
Nov 9
First Quarter

Hourly Weather History & Observations

Time (CDT) Temp. Windchill Dew Point Humidity Pressure Visibility Wind Dir Wind Speed Gust Speed Precip Events Conditions
12:15 AM 41.0 °F - 37.4 °F 87% 29.81 in 0.5 mi Calm Calm - N/A Fog Fog
12:35 AM 39.2 °F - 37.4 °F 93% 29.81 in 10.0 mi Calm Calm - N/A   Mostly Cloudy
12:55 AM 39.2 °F - 35.6 °F 87% 29.81 in 10.0 mi Calm Calm - N/A   Overcast
1:15 AM 39.2 °F - 37.4 °F 93% 29.81 in 10.0 mi Calm Calm - N/A   Mostly Cloudy
1:35 AM 39.2 °F - 35.6 °F 87% 29.81 in 10.0 mi Calm Calm - N/A   Scattered Clouds
1:55 AM 37.4 °F - 35.6 °F 93% 29.81 in 10.0 mi Calm Calm - N/A   Clear
2:15 AM 37.4 °F - 35.6 °F 93% 29.81 in 7.0 mi Calm Calm - N/A   Clear
2:35 AM 37.4 °F - 35.6 °F 93% 29.81 in 10.0 mi Calm Calm - N/A   Clear
2:55 AM 37.4 °F - 35.6 °F 93% 29.81 in 10.0 mi Calm Calm - N/A   Clear
3:15 AM 37.4 °F - 35.6 °F 93% 29.81 in 1.0 mi Calm Calm - N/A   Mist
3:35 AM 35.6 °F - 35.6 °F 100% 29.81 in 10.0 mi Calm Calm - N/A   Clear
3:55 AM 35.6 °F - 33.8 °F 93% 29.81 in 7.0 mi Calm Calm - N/A   Clear
4:15 AM 35.6 °F - 33.8 °F 93% 29.81 in 5.0 mi Calm Calm - N/A   Scattered Clouds
4:35 AM 35.6 °F - 33.8 °F 93% 29.81 in 4.0 mi Calm Calm - N/A   Scattered Clouds
4:55 AM 35.6 °F - 33.8 °F 93% 29.81 in 7.0 mi Calm Calm - N/A   Mostly Cloudy
5:15 AM 37.4 °F 32.8 °F 35.6 °F 93% 29.81 in 10.0 mi NW 5.8 mph - N/A   Overcast
5:35 AM 37.4 °F - 37.4 °F 100% 29.82 in 10.0 mi Calm Calm - N/A   Overcast
5:55 AM 39.2 °F 33.6 °F 37.4 °F 93% 29.82 in 10.0 mi NNW 8.1 mph - N/A   Overcast
6:15 AM 39.2 °F 33.0 °F 37.4 °F 93% 29.83 in 10.0 mi NNW 9.2 mph - N/A   Overcast
6:35 AM 39.2 °F 33.0 °F 37.4 °F 93% 29.83 in 10.0 mi NNW 9.2 mph - N/A   Overcast
6:55 AM 39.2 °F 32.0 °F 37.4 °F 93% 29.83 in 10.0 mi NNW 11.5 mph - N/A   Overcast
7:15 AM 39.2 °F 32.0 °F 37.4 °F 93% 29.83 in 10.0 mi NNW 11.5 mph - N/A   Overcast
7:35 AM 39.2 °F 30.8 °F 37.4 °F 93% 29.84 in 10.0 mi NNW 15.0 mph - N/A   Overcast
7:55 AM 39.2 °F 31.2 °F 37.4 °F 93% 29.84 in 10.0 mi NNW 13.8 mph 17.3 mph N/A   Overcast
8:15 AM 39.2 °F 30.8 °F 37.4 °F 93% 29.85 in 10.0 mi NNW 15.0 mph 20.7 mph N/A   Overcast
8:35 AM 39.2 °F 30.8 °F 37.4 °F 93% 29.86 in 10.0 mi NNW 15.0 mph 20.7 mph N/A   Overcast
8:55 AM 39.2 °F 30.5 °F 37.4 °F 93% 29.87 in 10.0 mi NNW 16.1 mph 20.7 mph N/A   Overcast
9:15 AM 39.2 °F 31.2 °F 37.4 °F 93% 29.87 in 10.0 mi NNW 13.8 mph 17.3 mph N/A   Overcast
9:35 AM 41.0 °F 33.5 °F 37.4 °F 87% 29.88 in 10.0 mi NNW 13.8 mph - N/A   Overcast
9:55 AM 39.2 °F 30.8 °F 37.4 °F 93% 29.88 in 10.0 mi NNW 15.0 mph - N/A   Overcast
10:15 AM 39.2 °F 30.8 °F 35.6 °F 87% 29.89 in 10.0 mi NNW 15.0 mph 23.0 mph N/A   Overcast
10:35 AM 39.2 °F 31.2 °F 35.6 °F 87% 29.89 in 10.0 mi NW 13.8 mph - N/A   Light Drizzle
10:55 AM 37.4 °F 28.9 °F 35.6 °F 93% 29.90 in 10.0 mi NNW 13.8 mph - N/A   Light Drizzle
11:15 AM 37.4 °F 29.3 °F 35.6 °F 93% 29.90 in 10.0 mi NNW 12.7 mph 18.4 mph N/A   Light Drizzle
11:35 AM 39.2 °F 30.5 °F 35.6 °F 87% 29.89 in 10.0 mi NNW 16.1 mph - N/A   Overcast
11:55 AM 39.2 °F 31.2 °F 35.6 °F 87% 29.89 in 10.0 mi North 13.8 mph - N/A   Overcast
12:15 PM 39.2 °F 31.6 °F 35.6 °F 87% 29.90 in 10.0 mi NNW 12.7 mph - N/A   Light Drizzle
12:35 PM 41.0 °F 33.9 °F 35.6 °F 81% 29.90 in 10.0 mi NNW 12.7 mph - N/A   Light Drizzle
12:55 PM 41.0 °F 34.7 °F 35.6 °F 81% 29.90 in 10.0 mi NNW 10.4 mph - N/A   Light Drizzle
1:15 PM 42.8 °F 36.2 °F 35.6 °F 76% 29.90 in 10.0 mi NNW 12.7 mph - N/A   Overcast
1:35 PM 42.8 °F 35.8 °F 37.4 °F 81% 29.89 in 10.0 mi North 13.8 mph - N/A   Overcast
1:55 PM 42.8 °F 35.8 °F 35.6 °F 76% 29.89 in 10.0 mi NNW 13.8 mph - N/A   Overcast
2:15 PM 42.8 °F 37.0 °F 37.4 °F 81% 29.89 in 10.0 mi North 10.4 mph - N/A Rain Light Rain
2:35 PM 44.6 °F 38.1 °F 37.4 °F 76% 29.88 in 10.0 mi North 13.8 mph - N/A   Overcast
2:55 PM 42.8 °F 36.2 °F 37.4 °F 81% 29.89 in 10.0 mi NW 12.7 mph 18.4 mph N/A   Drizzle
3:15 PM 41.0 °F 34.7 °F 37.4 °F 87% 29.89 in 10.0 mi NNW 10.4 mph - N/A   Overcast
3:36 PM 42.8 °F 37.0 °F 37.4 °F 81% 29.89 in 7.0 mi North 10.4 mph - N/A Rain Light Rain
3:55 PM 42.8 °F 36.6 °F 37.4 °F 81% 29.89 in 10.0 mi North 11.5 mph - N/A   Overcast
4:15 PM 42.8 °F 37.5 °F 37.4 °F 81% 29.90 in 10.0 mi NNW 9.2 mph - N/A   Overcast
4:35 PM 41.0 °F 34.7 °F 35.6 °F 81% 29.90 in 10.0 mi NW 10.4 mph - N/A   Overcast
4:55 PM 42.8 °F 36.6 °F 37.4 °F 81% 29.90 in 10.0 mi NNW 11.5 mph - N/A   Mostly Cloudy
5:15 PM 42.8 °F 37.5 °F 35.6 °F 76% 29.90 in 10.0 mi NNW 9.2 mph - N/A   Mostly Cloudy
5:35 PM 42.8 °F 38.6 °F 37.4 °F 81% 29.90 in 10.0 mi NNW 6.9 mph - N/A   Overcast
5:55 PM 41.0 °F 36.4 °F 35.6 °F 81% 29.90 in 10.0 mi NW 6.9 mph - N/A   Overcast
6:15 PM 39.2 °F 32.0 °F 35.6 °F 87% 29.91 in 7.0 mi NNW 11.5 mph - N/A   Drizzle
6:35 PM 39.2 °F 31.6 °F 35.6 °F 87% 29.91 in 10.0 mi NNW 12.7 mph 16.1 mph N/A   Overcast
6:55 PM 39.2 °F 33.6 °F 35.6 °F 87% 29.92 in 10.0 mi NNW 8.1 mph - N/A   Overcast
7:15 PM 39.2 °F 35.0 °F 35.6 °F 87% 29.92 in 10.0 mi NW 5.8 mph - N/A   Overcast
7:35 PM 39.2 °F - 35.6 °F 87% 29.92 in 10.0 mi Calm Calm - N/A   Overcast
7:55 PM 39.2 °F 34.2 °F 35.6 °F 87% 29.93 in 10.0 mi NW 6.9 mph - N/A   Overcast
8:15 PM 39.2 °F 34.2 °F 33.8 °F 81% 29.93 in 10.0 mi NW 6.9 mph - N/A   Overcast
8:35 PM 37.4 °F 34.9 °F 33.8 °F 87% 29.93 in 10.0 mi WNW 3.5 mph - N/A   Overcast
8:55 PM 37.4 °F 32.8 °F 33.8 °F 87% 29.93 in 10.0 mi WNW 5.8 mph - N/A   Mostly Cloudy
9:15 PM 35.6 °F 30.7 °F 32.0 °F 87% 29.93 in 10.0 mi WNW 5.8 mph - N/A   Scattered Clouds
9:35 PM 35.6 °F - 30.2 °F 81% 29.93 in 10.0 mi Calm Calm - N/A   Clear
9:55 PM 33.8 °F - 30.2 °F 87% 29.93 in 10.0 mi Calm Calm - N/A   Clear
10:15 PM 33.8 °F - 30.2 °F 87% 29.94 in 10.0 mi Calm Calm - N/A   Clear
10:35 PM 32.0 °F - 28.4 °F 87% 29.94 in 7.0 mi Calm Calm - N/A   Clear
10:55 PM 30.2 °F - 26.6 °F 86% 29.93 in 1.2 mi Calm Calm - N/A   Mist
11:15 PM 28.4 °F - 26.6 °F 93% 29.93 in 3.0 mi Calm Calm - N/A   Clear
11:35 PM 28.4 °F - 26.6 °F 93% 29.94 in 10.0 mi Calm Calm - N/A   Clear
11:55 PM 28.4 °F - 24.8 °F 86% 29.93 in 1.5 mi Calm Calm - N/A   Mist